TimeEDT,TemperatureF,Dew PointF,Humidity,Sea Level PressureIn,VisibilityMPH,Wind Direction,Wind SpeedMPH,Gust SpeedMPH,PrecipitationIn,Events,Conditions,WindDirDegrees,DateUTC
12:53 AM,57.9,55.9,93,29.80,10.0,Calm,Calm,-,N/A,,Clear,0,2013-06-13 04:53:00
1:53 AM,57.0,55.9,96,29.79,10.0,Calm,Calm,-,N/A,,Clear,0,2013-06-13 05:53:00
2:53 AM,55.9,54.0,93,29.79,10.0,Calm,Calm,-,N/A,,Clear,0,2013-06-13 06:53:00
3:53 AM,54.0,54.0,100,29.78,10.0,Calm,Calm,-,N/A,,Clear,0,2013-06-13 07:53:00
4:53 AM,55.0,53.1,93,29.80,10.0,Calm,Calm,-,N/A,,Clear,0,2013-06-13 08:53:00
5:53 AM,54.0,53.1,97,29.81,10.0,Calm,Calm,-,N/A,,Clear,0,2013-06-13 09:53:00
6:41 AM,57.2,53.6,88,29.81,10.0,WSW,4.6,-,N/A,,Partly Cloudy,250,2013-06-13 10:41:00
6:53 AM,57.0,54.0,89,29.82,10.0,WSW,4.6,-,N/A,,Clear,240,2013-06-13 10:53:00
7:00 AM,57.2,53.6,88,29.82,10.0,Calm,Calm,-,N/A,,Partly Cloudy,0,2013-06-13 11:00:00
7:53 AM,62.1,54.0,75,29.81,10.0,Calm,Calm,-,N/A,,Clear,0,2013-06-13 11:53:00
8:53 AM,64.9,55.0,70,29.79,10.0,Calm,Calm,-,N/A,,Clear,0,2013-06-13 12:53:00
9:53 AM,64.9,55.0,70,29.79,10.0,Calm,Calm,-,N/A,,Mostly Cloudy,0,2013-06-13 13:53:00
10:53 AM,66.0,57.0,73,29.78,10.0,South,3.5,-,N/A,,Overcast,180,2013-06-13 14:53:00
11:53 AM,64.0,55.0,73,29.78,10.0,SSW,3.5,-,0.00,,Overcast,200,2013-06-13 15:53:00
12:53 PM,63.0,57.9,84,29.80,5.0,WSW,3.5,-,0.02,Rain,Light Rain,240,2013-06-13 16:53:00
1:53 PM,61.0,59.0,93,29.75,7.0,South,5.8,-,0.06,Rain,Light Rain,170,2013-06-13 17:53:00
2:53 PM,60.1,60.1,100,29.77,1.8,Variable,6.9,-,0.12,Rain,Rain,0,2013-06-13 18:53:00
3:00 PM,59.0,59.0,100,29.76,2.5,South,9.2,-,0.02,Rain,Light Rain,180,2013-06-13 19:00:00
3:03 PM,59.0,59.0,100,29.77,3.0,South,9.2,-,0.02,Rain,Light Rain,180,2013-06-13 19:03:00
3:17 PM,57.2,57.2,100,29.76,4.0,SSE,8.1,-,0.04,Rain,Light Rain,160,2013-06-13 19:17:00
3:53 PM,57.9,55.9,93,29.76,4.0,Calm,Calm,-,0.08,Rain,Light Rain,0,2013-06-13 19:53:00
4:53 PM,57.0,55.0,93,29.74,5.0,East,9.2,-,0.01,Rain,Light Rain,80,2013-06-13 20:53:00
5:53 PM,55.9,54.0,93,29.71,10.0,ENE,6.9,-,0.00,,Overcast,70,2013-06-13 21:53:00
6:53 PM,55.9,54.0,93,29.72,4.0,Calm,Calm,-,0.02,Rain,Light Rain,0,2013-06-13 22:53:00
7:51 PM,55.4,53.6,94,29.73,2.0,North,5.8,-,0.07,Rain,Light Rain,10,2013-06-13 23:51:00
7:53 PM,55.0,54.0,96,29.73,2.5,North,5.8,-,0.07,Rain,Light Rain,360,2013-06-13 23:53:00
8:16 PM,53.6,53.6,100,29.72,3.0,NE,5.8,-,0.04,Rain,Light Rain,40,2013-06-14 00:16:00
8:53 PM,54.0,53.1,97,29.71,9.0,NNE,4.6,-,0.06,Rain,Light Rain,30,2013-06-14 00:53:00
9:53 PM,54.0,54.0,100,29.71,4.0,Variable,5.8,-,0.05,Rain,Light Rain,0,2013-06-14 01:53:00
10:53 PM,53.1,53.1,100,29.69,7.0,ENE,6.9,-,0.07,Rain,Light Rain,60,2013-06-14 02:53:00
11:37 PM,53.6,53.6,100,29.66,6.0,NE,6.9,-,0.07,Rain,Light Rain,50,2013-06-14 03:37:00
11:44 PM,53.6,53.6,100,29.66,5.0,NE,9.2,-,0.07,Rain,Light Rain,50,2013-06-14 03:44:00
11:53 PM,54.0,53.1,97,29.66,5.0,NE,8.1,-,0.09,Rain,Light Rain,40,2013-06-14 03:53:00